Deer Park, WA

5:01 PM PST on December 05, 2016 (GMT -0800)
Deer Park

Weather History for KDEW - July, 2014

Change the Weather History Date:

Wednesday, July 16, 2014

  Actual Average Record
Temperature  
Mean Temperature 77 °F 66 °F  
Max Temperature 97 °F 84 °F 97 °F (2014)
Min Temperature 56 °F 48 °F 42 °F (2000)
Degree Days  
Heating Degree Days 0 2  
Month to date heating degree days 0 46  
Since 1 June heating degree days 206 246  
Since 1 July heating degree days 0 46  
Cooling Degree Days 12 3  
Month to date cooling degree days 118 30  
Year to date cooling degree days 120 50  
Since 1 June cooling degree days 120 47  
Growing Degree Days 26 (Base 50)    
Moisture  
Dew Point 54 °F    
Average Humidity 51    
Maximum Humidity 87    
Minimum Humidity 15    
Precipitation  
Precipitation 0.00 in 0.03 in 0.09 in (1999)
Month to date precipitation 0.06 0.65  
Year to date precipitation 13.65 12.35  
Sea Level Pressure  
Sea Level Pressure 29.88 in    
Wind  
Wind Speed 3 mph (SW)    
Max Wind Speed 12 mph    
Max Gust Speed 16 mph    
Visibility 10 miles    
Events      
T = Trace of Precipitation, MM = Missing Value Source: NWS Daily Summary

Daily Weather History Graph

Daily Weather History Graph

Search for Another Location

Airport or City:

Trip Planner

Search our weather history database for the weather conditions in past years. The results will help you decide how hot, cold, wet, or windy it might be!

Date:

Astronomy

Jul. 16, 2014 Rise Set
Actual Time 5:07 AM PDT 8:43 PM PDT
Civil Twilight 4:28 AM PDT 9:22 PM PDT
Nautical Twilight 3:35 AM PDT 10:14 PM PDT
Astronomical Twilight 2:22 AM PDT 11:26 PM PDT
Moon 11:01 PM PDT (7/16) 10:43 AM PDT (7/16)
Length of Visible Light 16h 54m
Length of Day
15h 36m
Waning Gibbous, 75% of the Moon is Illuminated
Jul 16
Waning Gibbous
Jul 18
Last Quarter
Jul 26
New
Aug 3
First Quarter
Aug 10
Full

Hourly Weather History & Observations

Time (PDT) Temp. Heat Index Dew Point Humidity Pressure Visibility Wind Dir Wind Speed Gust Speed Precip Events Conditions
12:53 AM 62.1 °F - 55.0 °F 78% 29.92 in 10.0 mi Calm Calm - N/A   Clear
1:53 AM 60.1 °F - 55.0 °F 83% 29.92 in 10.0 mi Calm Calm - N/A   Clear
2:53 AM 59.0 °F - 55.0 °F 87% 29.93 in 10.0 mi NW 3.5 mph - N/A   Clear
3:53 AM 57.0 °F - 54.0 °F 89% 29.93 in 10.0 mi NNW 3.5 mph - N/A   Clear
4:53 AM 57.0 °F - 53.1 °F 87% 29.94 in 10.0 mi North - - N/A   Clear
5:53 AM 57.9 °F - 53.1 °F 84% 29.96 in 10.0 mi North - - N/A   Clear
6:53 AM 64.9 °F - 59.0 °F 81% 29.95 in 10.0 mi Calm Calm - N/A   Clear
7:53 AM 73.9 °F - 59.0 °F 59% 29.95 in 10.0 mi Variable 3.5 mph - N/A   Clear
8:53 AM 77.0 °F - 60.1 °F 56% 29.96 in 10.0 mi ENE 3.5 mph - N/A   Clear
9:53 AM 80.1 °F 80.6 °F 57.9 °F 47% 29.95 in 10.0 mi Calm Calm - N/A   Clear
10:53 AM 82.9 °F 82.1 °F 55.9 °F 39% 29.94 in 10.0 mi South 6.9 mph - N/A   Clear
11:53 AM 87.1 °F 85.3 °F 55.0 °F 33% 29.93 in 10.0 mi South 5.8 mph - N/A   Clear
12:53 PM 89.1 °F 87.3 °F 55.9 °F 32% 29.91 in 10.0 mi Calm Calm - N/A   Clear
1:53 PM 91.9 °F 90.0 °F 55.0 °F 29% 29.89 in 10.0 mi Variable 5.8 mph - N/A   Clear
2:53 PM 95.0 °F - 48.0 °F 20% 29.86 in 10.0 mi SW 5.8 mph - N/A   Clear
3:53 PM 95.0 °F - 52.0 °F 23% 29.84 in 10.0 mi Variable 3.5 mph - N/A   Unknown
4:53 PM 96.1 °F - 52.0 °F 22% 29.81 in 10.0 mi East 8.1 mph - N/A   Unknown
5:53 PM 96.1 °F - 50.0 °F 21% 29.79 in 10.0 mi Variable 3.5 mph - N/A   Unknown
6:53 PM 95.0 °F - 41.0 °F 15% 29.77 in 10.0 mi WSW 8.1 mph - N/A   Unknown
7:53 PM 90.0 °F - 45.0 °F 21% 29.76 in 10.0 mi SW 5.8 mph - N/A   Unknown
8:53 PM 75.0 °F - 52.0 °F 44% 29.77 in 10.0 mi Calm Calm - N/A   Unknown
9:53 PM 70.0 °F - 54.0 °F 57% 29.78 in 10.0 mi Calm Calm - N/A   Clear
10:53 PM 66.0 °F - 54.0 °F 65% 29.78 in 10.0 mi Calm Calm - N/A   Clear
11:53 PM 63.0 °F - 54.0 °F 72% 29.78 in 9.0 mi Calm Calm - N/A   Clear